Aérodrome :
LOGIN :

S'inscrire | Disclaimer

   EN    FR    IT 

 










Légende :    VFR   VFR Marginal   IFR   IFR Intensif   IFR Très Intensif
Visi : 
Plafond : 
>= 8 km
>= 3000ft
5 à 8 km
1000 à 3000 ft
1500m à 5 km
500 à 1000 ft
800 à 1500m
200 à 500 ft
< 800m
< 200 ft
Symboles :   Orages  Brouillard  Fortes neiges  Fortes précipitations  Vent > 20 kt
SIGMETs :   Divers  Orages  Givrage  Turbulence  Onde Orograph.  Cendres Volcan.







- Altitude de l'aérodrome : 699 ft
- Code IATA : PAD


EDLP - Paderborn Lippstadt

DERNIER METAR :
  • 191820Z 21007KT CAVOK 14/11 Q1019

METARs EXPIRÉS :
  • 191750Z 24010KT 220V280 9999 -SHRA FEW037CB SCT064 14/12 Q1019
  • 191720Z 21004KT 9999 VCSH FEW037CB SCT064 14/12 Q1018
  • 191650Z 26004KT 210V340 9999 FEW037CB 14/12 Q1018
  • 191620Z 27010G22KT 210V310 6000 -SHRA SCT037CB SCT051 15/09 Q1018

TAF TAF EDLP
Valide du 19 à 18h jusqu'au 20 à 18h UTC


191700Z 1918/2018 23007KT 9999 SCT035
BECMG 2005/2008 24012KT
BECMG 2015/2018 25005KT
Pas de NOTAMs connus pour ce terrain.



MET'MAP, la Météo Aéronautique d'un coup d'oeil ! - Copyright ORBIFLY Décembre 2007 - Disclaimer

ORBIFLY MET'MAP TEAM :

Programmation & Développement : Alexandra Zaïnal
Conception & Développement : Baudouin d'Aumeries
Co-Programmation & Développement : Marc-Olivier Méhu
Soutien technique & logistique : Manuel Goepfert

Contact : metmap@orbifly.com




SOURCES & CREDITS :

   NOAA